Погода в Царицыно

Россия / Омская область     54°49′40″N   74°29′14″E
темп.,
°C
ветер,
м/с
пор.,
м/с
влажн.,
%
обл.,
%
осадки,
мм/ч
давл.,
гПа
погр.,
м
23 октября, сб
сб2300:00+3ююз81395100 0.1 1013822
03:00+3ююз71393100 0.0 1013575
06:00+4ююз91689100 0.0 1011585
09:00+5ююз101788100 1.1 1009791
12:00+8юз101566100 1.1 10091049
15:00+10зюз8145929 0.0 1009876
18:00+10зюз71462100 0.0 1011789
21:00+10юз71464100 0.0 1012659
24 октября, вс
вс2400:00+9зюз71570100 0.0 1013552
03:00+10зюз8157099 0.0 1014726
06:00+8зюз7148131 0.0 1015457
09:00+7зюз613855 0.0 1017455
12:00+11зюз6106372 0.0 1017810
15:00+12зюз6959100 0.0 1018985
18:00+11юз4970100 0.0 1018279
21:00+10ююз51273100 0.0 1016376
25 октября, пн
пн2500:00+10ююз71572100 0.0 1014535
03:00+9юз8165575 0.0 1012561
06:00+8юз71551100 0.0 1011522
09:00+8зюз71449100 0.0 1012576
12:00+11з7125498 0.0 10141171
15:00+10зсз575085 0.0 1015980
18:00+7з1160100 0.0 101610
21:00+7ююв3461100 0.0 101582
26 октября, вт
вт2600:00+8ююв41268100 0.1 1012491
03:00+7ю61492100 3.1 1009576
06:00+7ююв3884100 4.7 1004257
09:00+7ююз51168100 0.6 1001460
12:00+7зюз91482100 1.8 9991271
15:00+4з81382100 0.4 10031220
18:00+1зсз101587100 0.8 10081233
21:000зсз10166558 0.1 10141374
27 октября, ср
ср2700:00−1з8136969 0.1 10181011
03:00−2з712705 0.0 1022719
06:00−2зюз712715 0.0 1024683
09:00−2зюз611705 0.0 1025620
12:00+1зюз79515 0.0 10251038
15:00+3зюз794534 0.0 10251203
18:000юз4854100 0.0 1025180
21:000ююз41054100 0.0 1025234